EW7351 Weather Reports


time (UTC)temp
C
wind
direction
speed
KPH
gust
KPH
rain 1hr
cm
rain 24hr
cm
rain mn
cm
humidity
%
barometer
mb
20260902143913 30 120 1.6 6.4 0.00 0.00 0.00 62 1014.8
20260902143343 30 117 1.6 4.8 0.00 0.00 0.00 65 1014.8
20260902142822 30 221 0.0 6.4 0.00 0.00 0.00 64 1014.8
20260902142253 29 121 1.6 9.7 0.00 0.00 0.00 66 1014.8
20260902141751 29 124 1.6 9.7 0.00 0.00 0.00 65 1014.8
20260902141223 29 109 1.6 8.0 0.00 0.00 0.00 67 1014.8
20260902140947 28 111 1.6 8.0 0.00 0.00 0.00 67 1014.8
20260902140153 28 127 1.6 8.0 0.00 0.00 0.00 68 1014.7
20260902135651 28 155 1.6 6.4 0.00 0.00 0.00 68 1014.7
20260902135147 28 119 1.6 11.3 0.00 0.00 0.00 69 1014.7
20260902134645 27 122 3.2 11.3 0.00 0.00 0.00 69 1014.7
20260902134131 27 136 1.6 9.7 0.00 0.00 0.00 70 1014.7
20260902134035 27 131 3.2 9.7 0.00 0.00 0.00 70 1014.6
20260902133652 27 123 3.2 9.7 0.00 0.00 0.00 71 1014.6
20260902132531 27 131 1.6 9.7 0.00 0.00 0.00 70 1014.6
20260902132229 27 125 1.6 9.7 0.00 0.00 0.00 70 1014.6
20260902131442 26 128 3.2 9.7 0.00 0.00 0.00 71 1014.6
20260902130912 26 122 3.2 9.7 0.00 0.00 0.00 71 1014.6
20260902130345 26 126 3.2 11.3 0.00 0.00 0.00 72 1014.6
20260902125817 26 134 1.6 11.3 0.00 0.00 0.00 73 1014.6
20260902125315 26 131 1.6 4.8 0.00 0.00 0.00 74 1014.5
20260902124745 26 118 1.6 4.8 0.00 0.00 0.00 74 1014.4
20260902124220 26 117 1.6 6.4 0.00 0.00 0.00 75 1014.4
20260902123720 25 130 0.0 4.8 0.00 0.00 0.00 76 1014.3
20260902123159 25 131 0.0 4.8 0.00 0.00 0.00 76 1014.3
20260902122644 25 123 0.0 3.2 0.00 0.00 0.00 77 1014.3
20260902122139 24 128 0.0 1.6 0.00 0.00 0.00 78 1014.3
20260902121637 24 113 0.0 0.0 0.00 0.00 0.00 79 1014.3
20260902121133 24 202 0.0 0.0 0.00 0.00 0.00 80 1014.3
20260902120629 23 202 0.0 0.0 0.00 0.00 0.00 80 1014.3
20260902115539 24 202 0.0 0.0 0.00 0.00 0.00 79 1014.2
20260902115011 24 202 0.0 0.0 0.00 0.00 0.00 80 1014.2
20260902114509 24 202 0.0 0.0 0.00 0.00 0.00 79 1014.3
20260902114006 24 202 0.0 0.0 0.00 0.00 0.00 79 1014.3
20260902113504 24 201 0.0 0.0 0.00 0.00 0.00 79 1014.4
20260902112951 24 201 0.0 0.0 0.00 0.00 0.00 78 1014.3
20260902112454 24 201 0.0 0.0 0.00 0.00 0.00 79 1014.3
20260902111949 24 201 0.0 0.0 0.00 0.00 0.00 78 1014.3
20260902111445 24 202 0.0 0.0 0.00 0.00 0.00 78 1014.3
20260902110920 24 202 0.0 0.0 0.00 0.00 0.00 79 1014.2
20260902110421 24 201 0.0 0.0 0.00 0.00 0.00 78 1014.2
20260902105854 24 202 0.0 0.0 0.00 0.00 0.00 78 1014.2
20260902105347 24 201 0.0 0.0 0.00 0.00 0.00 76 1014.1
20260902104817 24 202 0.0 0.0 0.00 0.00 0.00 76 1014.2
20260902104313 24 202 0.0 0.0 0.00 0.00 0.00 76 1014.1
20260902103745 24 202 0.0 0.0 0.00 0.00 0.00 76 1014.1
20260902103219 25 202 0.0 0.0 0.00 0.00 0.00 75 1014.1
20260902102706 25 201 0.0 0.0 0.00 0.00 0.00 75 1014.1
20260902102210 25 202 0.0 0.0 0.00 0.00 0.00 74 1014.1
20260902101642 25 202 0.0 0.0 0.00 0.00 0.00 74 1014.2
20260902101137 25 201 0.0 0.0 0.00 0.00 0.00 74 1014.1
20260902100635 25 202 0.0 0.0 0.00 0.00 0.00 73 1014.2
20260902100133 25 202 0.0 0.0 0.00 0.00 0.00 72 1014.1
20260902095609 25 201 0.0 0.0 0.00 0.00 0.00 71 1014.2
20260902095106 26 201 0.0 0.0 0.00 0.00 0.00 71 1014.2
20260902094556 26 202 0.0 0.0 0.00 0.00 0.00 71 1014.1
20260902094320 26 201 0.0 0.0 0.00 0.00 0.00 71 1014.1
20260902093530 26 202 0.0 0.0 0.00 0.00 0.00 70 1014.0
20260902093003 26 201 0.0 0.0 0.00 0.00 0.00 69 1014.0
20260902092503 26 201 0.0 0.0 0.00 0.00 0.00 68 1014.0
20260902091941 26 201 0.0 0.0 0.00 0.00 0.00 67 1014.0
20260902091441 26 201 0.0 0.0 0.00 0.00 0.00 68 1013.9
20260902090937 26 201 0.0 0.0 0.00 0.00 0.00 67 1013.9
20260902090440 27 248 0.0 1.6 0.00 0.00 0.00 67 1013.9
20260902085914 27 248 0.0 1.6 0.00 0.00 0.00 67 1013.9
20260902085348 27 224 0.0 1.6 0.00 0.00 0.00 67 1013.8
20260902084821 27 223 0.0 0.0 0.00 0.00 0.00 67 1013.8
20260902084321 27 224 0.0 1.6 0.00 0.00 0.00 67 1013.8
20260902083824 27 224 0.0 1.6 0.00 0.00 0.00 67 1013.8
20260902083302 27 139 0.0 0.0 0.00 0.00 0.00 66 1013.8
20260902082803 27 139 0.0 0.0 0.00 0.00 0.00 66 1013.8
20260902082236 27 154 0.0 1.6 0.00 0.00 0.00 66 1013.7
20260902081735 27 154 0.0 1.6 0.00 0.00 0.00 66 1013.8
20260902081211 27 154 0.0 0.0 0.00 0.00 0.00 66 1013.8
20260902080650 27 188 0.0 1.6 0.00 0.00 0.00 65 1013.8
20260902080150 27 264 0.0 1.6 0.00 0.00 0.00 65 1013.8
20260902075648 27 153 0.0 3.2 0.00 0.00 0.00 65 1013.8
20260902075143 28 221 0.0 4.8 0.00 0.00 0.00 65 1013.9
20260902074857 28 134 0.0 4.8 0.00 0.00 0.00 65 1013.8
20260902074125 28 129 0.0 3.2 0.00 0.00 0.00 65 1013.8
20260902073621 28 129 0.0 4.8 0.00 0.00 0.00 64 1013.8
20260902073124 28 120 0.0 6.4 0.00 0.00 0.00 64 1013.8
20260902072604 28 129 0.0 4.8 0.00 0.00 0.00 64 1013.8
20260902072100 28 114 1.6 6.4 0.00 0.00 0.00 64 1013.9
20260902071601 28 162 1.6 6.4 0.00 0.00 0.00 63 1013.9
20260902071058 28 132 1.6 8.0 0.00 0.00 0.00 63 1013.9
20260902070559 28 123 1.6 8.0 0.00 0.00 0.00 63 1013.9
20260902070100 28 131 1.6 8.0 0.00 0.00 0.00 63 1013.9
20260902065537 28 158 1.6 8.0 0.00 0.00 0.00 62 1014.0
20260902065037 28 125 1.6 8.0 0.00 0.00 0.00 62 1014.0
20260902064538 28 248 3.2 6.4 0.00 0.00 0.00 62 1014.0
20260902064020 28 191 3.2 9.7 0.00 0.00 0.00 62 1014.0
20260902063715 28 110 3.2 9.7 0.00 0.00 0.00 62 1014.0
20260902062921 28 207 1.6 9.7 0.00 0.00 0.00 62 1014.0
20260902062414 28 216 3.2 9.7 0.00 0.00 0.00 61 1013.9
20260902061912 28 144 3.2 9.7 0.00 0.00 0.00 61 1013.9
20260902061347 29 103 3.2 9.7 0.00 0.00 0.00 61 1013.9
20260902060821 29 138 1.6 8.0 0.00 0.00 0.00 61 1013.9
20260902060519 29 141 1.6 6.4 0.00 0.00 0.00 61 1013.9
20260902055729 29 245 3.2 9.7 0.00 0.00 0.00 61 1013.9
20260902055229 29 113 3.2 8.0 0.00 0.00 0.00 61 1013.9
20260902054949 29 114 3.2 8.0 0.00 0.00 0.00 60 1013.9
20260902054223 29 233 3.2 8.0 0.00 0.00 0.00 60 1013.9
20260902053715 29 150 3.2 8.0 0.00 0.00 0.00 60 1013.9
20260902053212 29 124 3.2 8.0 0.00 0.00 0.00 61 1013.9
20260902052709 29 238 3.2 8.0 0.00 0.00 0.00 60 1013.9
20260902052407 30 124 3.2 8.0 0.00 0.00 0.00 60 1013.8
20260902051617 30 139 3.2 11.3 0.00 0.00 0.00 60 1013.8
20260902051313 30 105 3.2 11.3 0.00 0.00 0.00 59 1013.8
20260902050525 30 203 4.8 12.9 0.00 0.00 0.00 58 1013.8
20260902045959 30 129 4.8 12.9 0.00 0.00 0.00 58 1013.8
20260902045431 30 117 4.8 12.9 0.00 0.00 0.00 57 1013.9
20260902044927 30 141 4.8 12.9 0.00 0.00 0.00 57 1013.8
20260902044425 30 156 4.8 12.9 0.00 0.00 0.00 57 1013.8
20260902043920 30 117 4.8 12.9 0.00 0.00 0.00 56 1013.7
20260902043422 30 234 4.8 11.3 0.00 0.00 0.00 56 1013.7
20260902042916 30 113 4.8 11.3 0.00 0.00 0.00 56 1013.7
20260902042413 30 208 4.8 11.3 0.00 0.00 0.00 55 1013.7
20260902041847 31 219 6.4 12.9 0.00 0.00 0.00 55 1013.6
20260902041546 31 137 8.0 16.1 0.00 0.00 0.00 54 1013.6
20260902040756 31 220 6.4 19.3 0.00 0.00 0.00 54 1013.6
20260902040719 31 156 8.0 16.1 0.00 0.00 0.00 54 1013.6
20260902035952 31 219 8.0 19.3 0.00 0.00 0.00 54 1013.5
20260902035222 31 146 8.0 17.7 0.00 0.00 0.00 54 1013.4
20260902034715 31 129 8.0 19.3 0.00 0.00 0.00 53 1013.4
20260902034146 31 139 6.4 19.3 0.00 0.00 0.00 51 1013.4
20260902033644 31 131 3.2 14.5 0.00 0.00 0.00 50 1013.3
20260902033116 31 143 0.0 6.4 0.00 0.00 0.00 52 1013.3
20260902032615 31 123 0.0 1.6 0.00 0.00 0.00 51 1013.2
20260902032111 31 123 0.0 1.6 0.00 0.00 0.00 50 1013.0
20260902031608 31 123 0.0 1.6 0.00 0.00 0.00 50 1013.0
20260902031320 32 123 0.0 1.6 0.00 0.00 0.00 49 1012.9
20260902030558 32 123 0.0 4.8 0.00 0.00 0.00 48 1012.9
20260902030253 32 123 0.0 4.8 0.00 0.00 0.00 48 1012.9
20260902025750 32 123 1.6 6.4 0.00 0.00 0.00 47 1012.7
20260902025000 32 113 1.6 6.4 0.00 0.00 0.00 47 1012.7
20260902024456 32 125 1.6 8.0 0.00 0.00 0.00 47 1012.7
20260902023954 32 153 1.6 8.0 0.00 0.00 0.00 46 1012.6
20260902023453 32 176 1.6 8.0 0.00 0.00 0.00 46 1012.5
20260902022939 32 110 1.6 8.0 0.00 0.00 0.00 45 1012.5
20260902022442 33 143 1.6 6.4 0.00 0.00 0.00 45 1012.4
20260902021921 33 136 3.2 8.0 0.00 0.00 0.00 45 1012.3
20260902021416 33 109 3.2 8.0 0.00 0.00 0.00 44 1012.2
20260902020915 33 139 1.6 6.4 0.00 0.00 0.00 45 1012.1
20260902020414 32 153 1.6 6.4 0.00 0.00 0.00 45 1012.1
20260902020141 32 118 0.0 4.8 0.00 0.00 0.00 46 1012.0
20260902015350 32 124 0.0 4.8 0.00 0.00 0.00 47 1011.9
20260902014846 32 128 0.0 3.2 0.00 0.00 0.00 47 1011.7
20260902014345 32 131 0.0 1.6 0.00 0.00 0.00 47 1011.7
20260902013834 32 131 0.0 1.6 0.00 0.00 0.00 46 1011.6
20260902013333 33 131 0.0 4.8 0.00 0.00 0.00 46 1011.6
20260902012805 33 131 0.0 4.8 0.00 0.00 0.00 46 1011.5
20260902012522 33 127 1.6 4.8 0.00 0.00 0.00 45 1011.5
20260902012030 33 129 1.6 4.8 0.00 0.00 0.00 45 1011.5
20260902011237 33 125 1.6 6.4 0.00 0.00 0.00 44 1011.5
20260902010739 33 124 3.2 9.7 0.00 0.00 0.00 43 1011.4
20260902010213 33 122 3.2 9.7 0.00 0.00 0.00 43 1011.4
20260902005711 34 129 1.6 9.7 0.00 0.00 0.00 41 1011.3
20260902005146 34 138 0.0 1.6 0.00 0.00 0.00 39 1011.3
20260902004647 35 129 0.0 3.2 0.00 0.00 0.00 39 1011.3
20260902004126 35 115 0.0 3.2 0.00 0.00 0.00 38 1011.3
20260902003627 35 125 0.0 3.2 0.00 0.00 0.00 37 1011.3
20260902003123 35 111 0.0 3.2 0.00 0.00 0.00 37 1011.4
20260902002603 35 115 0.0 1.6 0.00 0.00 0.00 37 1011.4
20260902002036 36 115 0.0 3.2 0.00 0.00 0.00 37 1011.3
20260902001519 35 115 0.0 8.0 0.00 0.00 0.00 36 1011.4
20260902001021 36 222 0.0 8.0 0.00 0.00 0.00 36 1011.5
20260902000501 36 139 1.6 4.8 0.00 0.00 0.00 36 1011.5
20260901235940 36 134 1.6 9.7 0.00 0.00 0.00 35 1011.5
20260901235412 36 128 3.2 9.7 0.00 0.00 0.00 35 1011.5
20260901234915 36 136 1.6 8.0 0.00 0.00 0.00 36 1011.6
20260901234358 36 103 1.6 11.3 0.00 0.00 0.00 36 1011.6
20260901233900 36 105 3.2 11.3 0.00 0.00 0.00 35 1011.6
20260901233332 36 122 4.8 14.5 0.00 0.00 0.00 35 1011.7
20260901232832 36 135 4.8 14.5 0.00 0.00 0.00 36 1011.9
20260901232306 36 91 3.2 12.9 0.00 0.00 0.00 35 1011.9
20260901231802 36 97 3.2 12.9 0.00 0.00 0.00 35 1011.9
20260901231301 36 94 1.6 9.7 0.00 0.00 0.00 36 1011.9
20260901230801 36 129 1.6 6.4 0.00 0.00 0.00 37 1011.9
20260901230747 36 124 1.6 4.8 0.00 0.00 0.00 36 1011.9
20260901225741 36 153 1.6 8.0 0.00 0.00 0.00 36 1011.9
20260901225214 36 123 3.2 9.7 0.00 0.00 0.00 36 1012.0
20260901224656 36 262 1.6 9.7 0.00 0.00 0.00 35 1011.9
20260901224356 36 162 1.6 6.4 0.00 0.00 0.00 35 1011.9
20260901223607 36 158 1.6 8.0 0.00 0.00 0.00 36 1012.0
20260901223106 36 146 1.6 6.4 0.00 0.00 0.00 37 1012.0
20260901222758 36 130 1.6 8.0 0.00 0.00 0.00 37 1012.0
20260901222015 36 129 1.6 11.3 0.00 0.00 0.00 37 1012.0
20260901221451 36 129 1.6 11.3 0.00 0.00 0.00 37 1012.0
20260901220948 36 225 3.2 9.7 0.00 0.00 0.00 36 1012.0
20260901220446 36 160 3.2 11.3 0.00 0.00 0.00 36 1012.1
20260901215944 36 139 1.6 9.7 0.00 0.00 0.00 36 1012.1
20260901215438 36 145 3.2 9.7 0.00 0.00 0.00 36 1012.1
20260901214932 36 160 4.8 11.3 0.00 0.00 0.00 35 1012.2
20260901214412 36 62 4.8 11.3 0.00 0.00 0.00 34 1012.3
20260901213845 36 226 6.4 16.1 0.00 0.00 0.00 34 1012.2
20260901213320 37 209 4.8 16.1 0.00 0.00 0.00 33 1012.3
20260901213244 37 113 3.2 9.7 0.00 0.00 0.00 33 1012.3
20260901212510 37 137 4.8 14.5 0.00 0.00 0.00 32 1012.3
20260901211750 38 143 4.8 17.7 0.00 0.00 0.00 31 1012.4
20260901211250 38 332 1.6 17.7 0.00 0.00 0.00 32 1012.4
20260901210730 38 139 3.2 14.5 0.00 0.00 0.00 32 1012.5
20260901210203 37 130 4.8 14.5 0.00 0.00 0.00 34 1012.5
20260901205924 37 122 6.4 14.5 0.00 0.00 0.00 33 1012.5
20260901205156 37 213 3.2 14.5 0.00 0.00 0.00 33 1012.5
20260901204632 38 134 1.6 8.0 0.00 0.00 0.00 33 1012.6
20260901204105 37 123 0.0 4.8 0.00 0.00 0.00 34 1012.7
20260901203823 37 113 1.6 8.0 0.00 0.00 0.00 33 1012.7
20260901203058 38 350 1.6 8.0 0.00 0.00 0.00 32 1012.8
20260901202529 37 124 1.6 8.0 0.00 0.00 0.00 34 1012.8
20260901202006 38 139 1.6 8.0 0.00 0.00 0.00 33 1012.9
20260901201501 38 321 1.6 8.0 0.00 0.00 0.00 33 1013.0
20260901200958 38 340 1.6 8.0 0.00 0.00 0.00 33 1013.0
20260901200453 37 228 3.2 11.3 0.00 0.00 0.00 35 1013.1
20260901200212 38 110 3.2 11.3 0.00 0.00 0.00 34 1013.1
20260901195451 37 120 1.6 8.0 0.00 0.00 0.00 36 1013.2
20260901194924 37 136 0.0 8.0 0.00 0.00 0.00 35 1013.2
20260901194644 37 142 0.0 6.4 0.00 0.00 0.00 36 1013.3
20260901193920 37 85 3.2 14.5 0.00 0.00 0.00 35 1013.4
20260901193349 37 121 3.2 14.5 0.00 0.00 0.00 37 1013.5
20260901193048 37 191 1.6 12.9 0.00 0.00 0.00 36 1013.5
20260901192329 37 39 3.2 14.5 0.00 0.00 0.00 35 1013.6
20260901191828 38 127 1.6 14.5 0.00 0.00 0.00 36 1013.7
20260901191259 37 124 1.6 14.5 0.00 0.00 0.00 37 1013.8
20260901191002 37 145 3.2 14.5 0.00 0.00 0.00 36 1013.9
20260901190233 37 249 1.6 8.0 0.00 0.00 0.00 38 1014.0
20260901185723 37 109 1.6 8.0 0.00 0.00 0.00 37 1013.9
20260901185158 37 347 3.2 8.0 0.00 0.00 0.00 36 1014.1
20260901184628 37 133 3.2 11.3 0.00 0.00 0.00 37 1014.2
20260901184355 37 191 3.2 11.3 0.00 0.00 0.00 37 1014.3
20260901183623 37 165 1.6 8.0 0.00 0.00 0.00 39 1014.4
20260901183344 36 91 3.2 12.9 0.00 0.00 0.00 37 1014.5
20260901182556 36 110 4.8 12.9 0.00 0.00 0.00 39 1014.5
20260901182031 36 129 6.4 16.1 0.00 0.00 0.00 39 1014.8
20260901181508 36 288 6.4 16.1 0.00 0.00 0.00 39 1014.9
20260901180957 36 170 4.8 14.5 0.00 0.00 0.00 39 1014.9
20260901180433 36 107 1.6 14.5 0.00 0.00 0.00 38 1015.0
20260901175903 36 34 3.2 9.7 0.00 0.00 0.00 38 1015.1
20260901175402 36 135 3.2 9.7 0.00 0.00 0.00 37 1015.2
20260901174833 36 146 1.6 8.0 0.00 0.00 0.00 36 1015.3
20260901174331 36 56 1.6 8.0 0.00 0.00 0.00 38 1015.4
20260901173806 36 23 3.2 11.3 0.00 0.00 0.00 37 1015.5
20260901173237 36 148 3.2 11.3 0.00 0.00 0.00 36 1015.5
20260901172712 36 248 3.2 14.5 0.00 0.00 0.00 38 1015.6
20260901172209 36 146 3.2 14.5 0.00 0.00 0.00 39 1015.7
20260901171931 36 318 1.6 11.3 0.00 0.00 0.00 40 1015.7
20260901171206 36 64 1.6 11.3 0.00 0.00 0.00 40 1015.8
20260901170701 36 131 3.2 11.3 0.00 0.00 0.00 39 1015.8
20260901170200 35 92 4.8 11.3 0.00 0.00 0.00 40 1015.8
20260901165631 35 134 3.2 12.9 0.00 0.00 0.00 43 1015.8
20260901165349 35 219 1.6 12.9 0.00 0.00 0.00 42 1015.9
20260901164605 35 153 3.2 12.9 0.00 0.00 0.00 42 1015.9
20260901164037 35 240 1.6 11.3 0.00 0.00 0.00 40 1015.9
20260901163512 35 208 1.6 6.4 0.00 0.00 0.00 44 1016.0
20260901162943 35 116 0.0 6.4 0.00 0.00 0.00 45 1016.0
20260901162441 35 153 1.6 9.7 0.00 0.00 0.00 46 1016.1
20260901161916 35 4 1.6 9.7 0.00 0.00 0.00 45 1016.0
20260901161350 35 167 3.2 9.7 0.00 0.00 0.00 46 1016.1
20260901160822 34 224 3.2 9.7 0.00 0.00 0.00 46 1016.1
20260901160317 34 162 1.6 8.0 0.00 0.00 0.00 46 1016.0
20260901155811 34 234 1.6 8.0 0.00 0.00 0.00 48 1016.0
20260901155309 34 127 1.6 6.4 0.00 0.00 0.00 47 1016.0
20260901154741 34 120 1.6 6.4 0.00 0.00 0.00 46 1016.0
20260901154239 34 155 0.0 6.4 0.00 0.00 0.00 46 1016.0
20260901153711 33 122 1.6 8.0 0.00 0.00 0.00 49 1015.9
20260901153208 33 223 1.6 8.0 0.00 0.00 0.00 50 1015.9
20260901152707 33 10 1.6 8.0 0.00 0.00 0.00 51 1015.9
20260901152139 33 147 1.6 8.0 0.00 0.00 0.00 50 1015.9
20260901151638 33 255 1.6 8.0 0.00 0.00 0.00 51 1015.9
20260901151129 32 253 1.6 11.3 0.00 0.00 0.00 52 1015.9
20260901150626 32 240 1.6 9.7 0.00 0.00 0.00 52 1016.0
20260901150100 32 260 0.0 6.4 0.00 0.00 0.00 54 1016.1
20260901145557 32 134 1.6 8.0 0.00 0.00 0.00 54 1016.1
20260901145056 31 103 1.6 8.0 0.00 0.00 0.00 54 1016.1
20260901144551 32 203 1.6 6.4 0.00 0.00 0.00 54 1016.2